カタログに戻る

STARLINK-2424

運用中通信VLEO
NORAD 47834·PAYLOAD·🇺🇸 United States

打ち上げ Mar 11, 2021 から Cape Canaveral Space Force Station

Loading…

次のパス (今後24時間)

TLE

最新Source: CelesTrak SupGP

元期: Sep 15, 2026, 01:04 UTC

1 47834C 21018AZ  26258.04493056  .00019047  00000+0  61237-3 0  2582
2 47834  53.1588  83.8342 0001217  77.0154 256.1857 15.31698475    15

AllMySatでSTARLINK-2424をリアルタイム追跡

Download on the App Store